Weather History for Dallas/Ft Worth, TX

Change the Weather History Date:

Sunday, July 28, 2013

  Actual Average Record
Temperature  
Mean Temperature 81 °F 86 °F  
Max Temperature 93 °F 97 °F 105 °F (1995)
Min Temperature 69 °F 76 °F 66 °F (1994)
Degree Days  
Heating Degree Days 0 0  
Month to date heating degree days 0 0  
Since 1 June heating degree days 0 0  
Since 1 July heating degree days 0 0  
Cooling Degree Days 16 21  
Month to date cooling degree days 536 567  
Year to date cooling degree days 1463 1480  
Since 1 June cooling degree days 1074 1058  
Growing Degree Days 31 (Base 50)    
Moisture  
Dew Point 65 °F    
Average Humidity 63    
Maximum Humidity 84    
Minimum Humidity 41    
Precipitation  
Precipitation 0.00 in 0.06 in 2.43 in (2004)
Month to date precipitation 2.05 2.00  
Year to date precipitation 17.35 22.04  
Sea Level Pressure  
Sea Level Pressure 29.92 in    
Wind  
Wind Speed 8 mph (SE)    
Max Wind Speed 17 mph    
Max Gust Speed 23 mph    
Visibility 10 miles    
Events      
T = Trace of Precipitation, MM = Missing Value Source: NWS Daily Summary

Daily Weather History Graph

Daily Weather History Graph

Search for Another Location

Airport:

Trip Planner

Search our weather history database for the weather conditions in past years. The results will help you decide how hot, cold, wet, or windy it might be!

Date:

Astronomy

Jul. 28, 2013 Rise Set
Actual Time 6:39 AM CDT 8:29 PM CDT
Civil Twilight 6:11 AM CDT 8:56 PM CDT
Nautical Twilight 5:39 AM CDT 9:29 PM CDT
Astronomical Twilight 5:04 AM CDT 10:04 PM CDT
Moon No Moon Rise 12:57 PM CDT (7/28)
Length of Visible Light 14h 44m
Length of Day
13h 50m
Waning Gibbous, 60% of the Moon is Illuminated
Jul 28
Waning Gibbous
Jul 29
Last Quarter
Aug 6
New
Aug 14
First Quarter
Aug 20
Full

Hourly Weather History & Observations

Time (CDT) Temp. Heat Index Dew Point Humidity Pressure Visibility Wind Dir Wind Speed Gust Speed Precip Events Conditions
12:53 AM 78.1 °F - 64.0 °F 62% 29.94 in 10.0 mi SSW 4.6 mph - N/A   Scattered Clouds
1:53 AM 77.0 °F - 64.0 °F 64% 29.93 in 10.0 mi Calm Calm - N/A   Scattered Clouds
2:53 AM 75.0 °F - 64.0 °F 69% 29.93 in 10.0 mi Calm Calm - N/A   Partly Cloudy
3:53 AM 75.0 °F - 64.0 °F 69% 29.92 in 10.0 mi Calm Calm - N/A   Mostly Cloudy
4:53 AM 72.0 °F - 64.0 °F 76% 29.92 in 10.0 mi SSE 4.6 mph - N/A   Mostly Cloudy
5:53 AM 71.1 °F - 64.0 °F 78% 29.93 in 10.0 mi South 3.5 mph - N/A   Mostly Cloudy
6:53 AM 70.0 °F - 64.9 °F 84% 29.95 in 10.0 mi ESE 3.5 mph - N/A   Mostly Cloudy
7:53 AM 73.0 °F - 66.9 °F 81% 29.96 in 10.0 mi Calm Calm - N/A   Scattered Clouds
8:53 AM 78.1 °F - 68.0 °F 71% 29.97 in 10.0 mi ESE 5.8 mph - N/A   Scattered Clouds
9:53 AM 81.0 °F 83.3 °F 66.9 °F 62% 29.97 in 10.0 mi ESE 10.4 mph - N/A   Scattered Clouds
10:53 AM 82.0 °F 83.8 °F 64.9 °F 56% 29.96 in 10.0 mi SE 8.1 mph - N/A   Scattered Clouds
11:53 AM 84.9 °F 87.1 °F 66.0 °F 53% 29.96 in 10.0 mi SE 6.9 mph - N/A   Scattered Clouds
12:53 PM 86.0 °F 87.6 °F 64.9 °F 49% 29.95 in 10.0 mi SSE 5.8 mph - N/A   Mostly Cloudy
1:53 PM 88.0 °F 90.3 °F 66.0 °F 48% 29.93 in 10.0 mi SSE 5.8 mph - N/A   Mostly Cloudy
2:53 PM 90.0 °F 92.4 °F 66.0 °F 45% 29.91 in 10.0 mi South 11.5 mph 17.3 mph N/A   Mostly Cloudy
3:53 PM 91.9 °F 94.1 °F 64.9 °F 41% 29.88 in 10.0 mi ESE 12.7 mph - N/A   Mostly Cloudy
4:53 PM 90.0 °F 91.3 °F 64.0 °F 42% 29.87 in 10.0 mi ESE 9.2 mph - N/A   Mostly Cloudy
5:53 PM 91.9 °F 93.3 °F 64.0 °F 39% 29.85 in 10.0 mi SSE 10.4 mph - N/A   Scattered Clouds
6:53 PM 91.9 °F 94.1 °F 64.9 °F 41% 29.84 in 10.0 mi East 11.5 mph - N/A   Mostly Cloudy
7:53 PM 90.0 °F 91.7 °F 64.9 °F 43% 29.86 in 10.0 mi SE 11.5 mph - N/A   Scattered Clouds
8:53 PM 87.1 °F 89.2 °F 66.0 °F 49% 29.87 in 10.0 mi ESE 9.2 mph - N/A   Scattered Clouds
9:53 PM 84.9 °F 87.6 °F 66.9 °F 55% 29.89 in 10.0 mi ESE 9.2 mph - N/A   Partly Cloudy
10:53 PM 84.9 °F 88.8 °F 69.1 °F 59% 29.91 in 10.0 mi ESE 13.8 mph 23.0 mph N/A   Scattered Clouds
11:53 PM 84.0 °F 87.8 °F 69.1 °F 61% 29.91 in 10.0 mi SE 16.1 mph - N/A   Mostly Cloudy